Location: Deardoffs Mills (historical)
(40.6353°N, 81.5590°W)
Time: 08:13:24
(UTC+00:00)

Envisat - Pass Details

Date: 01 October 2022
Orbit: 763 x 765 km, 98.2° (Epoch: 02 December)

Event Time Altitude Azimuth Distance (km) Brightness Sun altitude
Rises 08:35:44 0° 30° (NNE) 3,240 7.0 -31.6°
Reaches altitude 10° 08:38:48 10° 50° (NE) 2,308 6.3 -31.1°
Maximum altitude 08:42:12 18° 92° (E) 1,821 5.5 -30.5°
Drops below altitude 10° 08:45:34 10° 134° (SE) 2,296 5.7 -29.9°
Sets 08:48:36 0° 153° (SSE) 3,216 6.3 -29.4°
